Starlink 31366

operational
NORAD ID: 59403 Int'l Des: 2024-064 Owner: SPXS Country: US Constellation: starlink
LEOCIRCULAR

Starlink 31366について

説明を読み込み中...

リアルタイム位置

3D地球を読み込み中...

次回通過

高度履歴

Altitude vs Time

uPlot chart will show altitude changes over time

軌道要素

1 59403U 24064F 25306.04262583 -.00000234 00000-0 10321-5 0 9995
2 59403 43.0022 57.0704 0001339 281.8561 78.2141 15.27567326 89705
Epoch: Nov 2, 2025 • Age: 21 hours

現在のステータス

高度 483.9 km
速度 7.63 km/s
衛星直下点 26.04°N, 172.21°W
打ち上げ日 Apr 5, 2024
運用期間 1.5 years
タイプ internet

技術仕様

分類 Payload
質量 730.00 kg
乾燥質量 700.00 kg
総質量 730.00 kg
長さ 0.30 m
直径 4.10 m
スパン 29.00 m
形状 Box + pan
製造者 SPXS
バスタイプ Starlink V2M
フェーズステータス In Orbit
所有者/国 SPXS/US

大規模コンステレーション

Loading constellations...